Theta_e
317 317 317 317 317 318 319 316 315 315 314 311 309 309 309 309 311 313 320 318 322 327 327 325 325 330 329 330 336 333 334 335 336 338 337 337 335 336 337 337 337 337 337 336 335 337 337 337 342 343 344 345 347 349
317 317 316 316 317 317 318 315 315 316 312 310 309 309 308 309 311 312 319 317 316 322 326 324 323 323 324 326 329 328 333 336 336 336 336 336 336 337 335 336 337 336 336 342 338 343 342 339 343 342 341 345 348 349
316 316 316 316 317 318 317 315 316 314 311 309 310 309 308 309 310 311 316 317 319 324 326 326 327 324 323 324 324 329 327 331 333 331 336 336 337 336 335 335 334 336 335 337 340 339 339 339 339 339 341 342 341 341
315 316 316 316 317 317 315 315 315 312 310 309 309 308 308 309 310 310 315 316 318 324 327 327 322 324 322 322 324 325 325 326 329 331 333 333 333 333 331 335 335 334 336 336 337 338 338 337 337 339 338 337 336 334
315 316 315 316 317 315 314 316 313 312 310 309 309 308 308 309 309 311 315 316 317 323 328 326 323 322 322 322 324 323 325 327 328 328 328 328 331 331 331 331 328 331 331 333 330 330 336 334 337 336 336 335 332 332
314 315 315 315 316 314 315 314 311 310 309 308 308 307 307 309 311 315 324 318 317 319 326 325 322 324 322 323 325 325 326 326 326 327 327 328 329 328 329 328 329 328 328 329 329 332 329 332 334 333 333 332 331 331
314 315 315 315 315 314 315 313 311 310 308 308 308 307 307 309 311 318 323 319 317 318 325 325 324 323 321 324 325 325 325 326 327 327 327 327 328 327 329 330 329 330 331 331 331 332 334 333 333 332 331 330 328 330
314 314 315 315 314 315 314 312 310 309 308 308 306 307 308 309 311 316 317 314 316 319 323 326 325 324 322 327 329 325 327 327 328 328 328 328 328 328 330 328 327 327 328 331 332 332 333 333 332 332 331 330 330 330
313 314 315 314 314 314 312 310 309 308 307 306 306 309 312 314 318 321 314 315 315 320 325 325 325 326 323 326 327 327 327 330 328 329 329 329 330 332 331 330 330 332 331 329 332 330 330 331 331 331 330 330 330 331
313 314 314 313 314 313 310 308 308 307 305 306 310 317 320 319 316 315 318 323 323 324 323 326 325 328 324 326 327 329 328 329 331 330 329 329 330 330 332 332 332 332 331 330 331 332 331 332 332 331 331 331 332 331
313 313 313 313 312 310 308 307 306 305 306 311 317 321 318 315 318 322 325 325 324 325 324 323 324 324 322 327 329 329 329 329 329 331 331 332 331 334 333 334 332 332 330 330 331 331 331 332 332 332 332 331 330 328
313 313 313 312 310 309 307 305 304 307 313 315 316 315 317 321 323 325 324 325 325 325 324 324 324 323 324 323 329 330 330 331 331 330 331 331 335 336 335 334 333 331 330 331 331 332 330 330 329 329 327 326 324 323
312 312 312 310 308 307 305 304 305 309 311 314 318 322 324 323 325 324 325 325 327 324 324 324 325 323 324 324 328 330 330 330 328 331 331 332 338 336 335 334 333 331 330 330 329 327 327 325 323 323 323 322 321 320
311 309 308 306 306 305 304 304 307 310 313 320 323 324 324 325 324 323 323 324 324 324 324 325 325 325 326 326 327 329 329 328 329 330 329 332 338 336 335 333 332 330 328 327 327 324 323 323 322 320 319 319 318 318
306 305 305 305 304 304 304 304 307 311 314 320 321 326 323 321 322 322 322 323 323 323 325 326 328 328 328 327 328 328 329 330 327 328 331 335 336 336 335 333 329 328 327 326 324 323 322 320 318 318 318 317 317 316
304 304 305 304 304 303 304 305 310 311 314 318 319 320 319 321 322 322 323 323 321 323 324 327 329 328 327 326 328 327 325 327 329 331 334 335 335 334 333 331 330 328 326 325 323 322 320 318 317 318 317 316 315 315
303 303 304 303 303 303 305 309 311 315 317 317 318 317 318 320 322 321 319 318 318 324 327 326 328 326 327 326 325 326 327 329 334 336 336 334 334 332 328 330 329 328 327 325 323 321 319 316 316 316 316 313 312 312
303 303 303 303 304 305 308 309 313 315 316 316 318 318 317 318 320 319 316 315 321 325 325 327 325 326 326 325 325 326 329 334 331 330 331 333 333 331 330 329 330 329 328 325 323 321 318 315 315 313 313 312 310 310
303 303 303 303 306 308 310 311 313 315 315 316 316 315 316 316 316 316 316 315 316 320 324 325 326 325 324 324 325 326 328 328 329 328 328 328 329 329 329 328 329 330 327 325 323 321 317 314 313 312 312 311 310 309
303 303 303 305 307 311 312 312 310 313 314 315 313 314 314 314 313 313 314 316 316 317 323 325 324 323 322 323 324 325 326 327 325 324 324 324 324 326 326 326 327 328 328 325 323 319 315 313 313 313 312 312 311 311
303 303 304 304 307 310 310 310 312 312 312 313 312 312 312 312 313 314 315 315 316 319 320 321 322 322 325 324 324 323 325 324 323 322 322 322 321 322 324 325 329 327 326 324 323 319 315 315 314 313 312 313 313 313
303 304 304 306 309 309 311 309 312 312 312 313 313 314 314 315 315 315 314 315 316 318 319 319 320 321 323 325 323 322 321 323 323 322 320 319 321 322 321 321 323 324 324 323 323 322 319 316 314 313 313 314 313 314
305 305 306 307 309 308 309 308 312 312 314 314 315 317 317 317 316 314 316 315 315 314 314 314 315 316 318 318 318 321 321 320 319 319 320 320 320 320 320 319 319 321 322 323 323 323 321 316 313 313 314 314 315 314
305 308 308 309 309 309 310 312 311 312 313 314 315 315 315 316 317 318 318 317 317 317 317 318 317 317 317 317 317 316 315 315 316 316 316 318 319 318 317 317 317 319 321 321 322 323 322 317 315 313 314 316 316 314
306 308 307 305 309 310 312 313 314 315 315 314 315 316 316 317 318 319 319 318 319 319 321 321 321 320 318 318 318 318 317 317 316 317 315 315 315 317 317 318 320 320 321 322 323 323 323 317 315 316 316 316 316 316
305 308 308 309 309 311 312 314 314 315 314 314 315 315 316 318 319 319 318 320 323 323 321 321 322 322 323 323 323 322 322 320 318 318 317 317 318 319 322 325 325 322 324 323 322 322 320 317 316 316 316 316 316 316
309 309 309 309 311 312 314 314 315 316 316 316 317 318 319 320 320 320 320 321 320 318 317 316 318 320 322 322 323 323 322 322 323 322 322 323 322 322 322 323 322 322 321 322 320 318 316 316 317 316 316 316 316 316
307 307 310 311 311 311 313 313 315 315 316 316 317 319 321 320 319 317 316 315 314 317 319 318 318 317 320 321 322 323 323 323 323 322 322 322 322 322 322 322 320 319 320 321 319 317 317 319 318 317 316 316 316 317
308 308 310 311 312 312 314 314 315 315 318 318 316 316 315 315 314 314 314 317 320 321 321 319 318 318 320 322 323 323 322 322 322 322 322 322 323 322 322 321 320 321 321 321 318 319 319 319 318 317 317 317 316 316
310 309 311 313 313 313 314 315 316 315 315 315 314 314 315 316 316 319 320 323 324 325 323 322 322 322 322 323 322 322 322 322 322 321 320 320 320 319 320 320 320 318 318 319 320 320 319 320 319 319 317 316 316 317
311 310 311 313 314 315 313 315 314 314 315 315 315 316 317 320 321 323 324 323 323 321 321 322 322 322 321 321 320 322 322 321 322 322 322 321 320 319 319 320 318 318 318 318 317 317 316 316 316 317 317 318 317 316
312 313 314 319 322 321 318 318 319 320 320 321 323 322 323 325 324 326 323 323 322 321 321 322 321 322 323 323 322 322 320 322 321 321 322 322 321 321 320 320 319 319 318 318 318 318 318 318 318 319 319 320 319 317
318 318 318 323 324 324 323 324 324 325 325 326 325 324 324 323 324 324 323 324 324 325 325 324 323 323 323 321 319 319 318 318 317 318 317 319 320 321 320 320 320 319 319 318 319 318 319 320 320 320 319 320 319 319
Wind_Speed
20 19 18 21 22 20 17 14 13 12 11 10 9 8 9 9 9 6 2 3 5 3 6 3 3 3 2 2 2 3 3 3 4 4 3 3 4 3 4 2 4 7 6 7 7 7 12 4 5 9 5 2 5 5
20 19 21 21 19 20 17 15 13 12 10 9 8 7 8 6 7 6 3 2 4 5 5 6 13 14 10 5 4 1 3 1 3 1 1 1 4 3 4 6 4 5 4 6 4 4 2 2 4 5 5 3 3 5
20 19 18 17 17 18 16 14 13 11 8 7 7 6 6 4 5 4 4 4 4 4 6 5 4 1 3 8 11 3 2 2 2 3 1 1 3 3 6 7 4 4 3 5 3 6 2 2 3 2 1 3 4 5
21 18 17 17 18 18 16 15 13 10 8 7 6 5 4 4 5 4 4 3 5 4 4 4 2 1 2 4 8 8 2 2 2 2 3 3 5 2 3 3 6 4 6 6 7 5 3 6 5 3 4 4 4 4
20 18 18 18 19 19 16 17 13 9 8 7 6 5 5 5 5 5 7 5 4 5 4 3 5 1 1 3 8 9 6 4 3 3 4 4 1 3 2 3 8 7 9 7 7 5 5 7 7 6 7 6 4 2
20 18 18 19 20 18 19 17 12 9 8 7 5 5 5 5 4 3 4 3 4 3 4 3 3 2 2 5 8 8 7 3 2 2 1 2 1 3 4 5 2 4 4 6 7 6 8 5 7 8 7 5 3 1
19 18 19 20 21 19 21 16 12 9 8 6 5 5 4 5 2 5 4 3 6 2 3 3 3 4 2 7 5 5 5 2 3 2 3 1 3 3 4 8 2 0 4 3 3 2 4 6 6 6 3 3 3 1
18 18 20 21 20 21 20 15 11 8 7 6 5 4 4 5 5 5 3 5 4 5 3 3 2 4 4 5 5 3 5 4 4 1 2 4 3 4 4 4 3 4 4 3 4 5 3 4 4 5 3 1 4 4
18 20 21 20 20 22 18 14 11 9 7 5 3 2 1 3 4 3 3 4 6 4 3 3 3 4 3 3 1 4 4 5 3 4 4 3 5 5 4 4 2 2 2 5 6 6 1 3 4 4 2 2 5 5
19 20 21 21 24 20 17 14 12 9 4 2 3 4 4 4 4 6 3 5 5 4 4 4 0 3 3 5 6 5 4 6 5 4 4 5 8 5 2 5 5 5 3 3 7 8 5 5 4 3 3 3 4 5
21 21 22 26 24 21 17 14 11 8 6 3 5 1 3 7 4 4 3 4 4 4 5 4 5 3 2 6 5 3 4 5 4 5 4 5 4 5 0 1 2 4 5 2 4 6 5 6 4 3 4 5 6 7
22 23 26 26 23 20 18 14 12 9 5 5 2 3 4 4 3 4 4 3 5 3 4 5 4 5 3 2 3 4 4 4 3 5 4 4 5 6 6 8 9 8 8 10 12 11 12 10 8 7 5 6 7 8
24 27 27 24 21 20 17 14 12 9 8 3 3 5 3 3 3 5 7 4 4 4 5 5 5 5 4 4 1 3 6 4 3 4 4 2 8 8 9 9 10 12 13 12 12 11 10 10 9 7 6 7 7 7
28 26 24 23 21 18 14 12 14 11 2 3 4 3 5 5 4 3 3 2 4 2 5 5 5 4 2 5 1 4 2 3 4 5 6 5 9 11 9 8 8 9 9 10 9 9 8 7 8 8 8 7 7 8
25 24 23 21 20 17 13 12 13 5 2 3 3 4 5 1 2 1 0 2 4 1 4 5 2 4 4 3 2 1 4 4 4 2 2 5 10 10 9 8 9 9 7 6 6 6 7 7 7 7 7 7 7 7
26 22 15 21 18 15 12 13 7 2 2 3 3 2 2 4 4 4 4 5 2 3 2 2 3 3 4 2 5 5 2 4 3 3 3 6 9 8 8 7 5 8 8 8 6 6 6 6 6 6 6 6 7 7
11 6 21 19 16 14 15 4 3 3 2 3 2 3 2 4 2 3 0 2 2 5 4 2 3 2 3 3 3 2 3 1 3 3 4 6 7 6 5 8 10 10 8 7 7 6 6 6 5 4 5 5 5 6
8 23 21 19 18 15 3 1 2 3 3 3 3 4 4 2 1 3 2 3 2 3 2 2 1 4 3 3 3 3 1 2 5 5 5 6 5 3 5 6 8 8 8 7 6 6 5 5 5 4 4 2 2 3
22 21 19 16 10 4 2 1 2 2 1 1 2 2 2 1 2 3 3 1 1 2 3 2 3 3 4 2 1 2 3 4 5 4 4 5 4 4 4 3 3 7 8 8 7 6 6 5 3 4 3 2 3 4
17 15 16 11 4 2 3 2 1 2 3 2 1 3 2 1 1 2 3 3 2 2 4 4 4 3 3 1 2 3 4 4 4 5 5 5 6 6 5 4 5 7 9 9 8 6 8 8 7 6 3 1 1 3
10 9 8 3 2 2 2 2 3 1 1 1 2 2 1 3 4 5 6 5 4 4 5 5 5 3 4 0 4 3 4 5 5 4 3 6 6 3 4 4 6 8 10 9 9 10 10 9 8 8 7 6 2 3
5 6 2 2 0 1 2 1 1 3 2 1 3 3 3 4 4 4 3 5 5 9 8 8 6 6 5 5 7 7 2 4 4 5 5 3 6 6 7 8 8 9 10 9 11 13 12 11 9 9 7 5 4 5
6 3 2 2 2 2 1 1 2 3 3 4 3 3 3 3 2 3 3 4 5 5 7 9 11 15 12 14 12 10 9 9 10 11 10 11 11 10 10 11 11 12 8 10 10 13 11 12 13 10 8 6 4 4
2 1 1 1 1 1 2 3 2 2 3 3 3 2 3 2 4 3 5 4 4 1 3 3 6 5 7 7 8 11 15 16 16 17 17 13 11 13 14 14 15 13 13 11 12 12 13 14 12 13 9 6 4 4
1 2 1 2 2 3 4 5 4 4 3 4 3 3 3 3 3 4 5 2 2 2 1 3 3 4 6 6 5 9 10 13 12 9 16 18 17 16 14 14 14 14 13 12 11 11 12 13 14 11 10 8 7 6
1 2 2 3 4 3 3 4 5 4 3 3 3 1 3 3 3 4 2 2 3 2 1 1 2 3 4 4 4 4 3 6 10 10 11 10 12 13 9 6 6 9 9 9 9 11 14 11 8 11 12 12 12 10
1 1 2 1 2 1 3 2 2 3 3 2 1 2 3 4 3 1 2 1 3 7 9 9 10 10 8 5 1 2 3 4 5 6 5 6 9 9 11 8 7 7 11 12 12 20 22 21 18 18 15 10 9 9
1 2 3 5 2 2 2 3 2 2 2 1 2 1 3 3 2 2 2 5 12 13 10 10 11 13 12 8 6 4 4 3 3 3 3 4 5 4 5 5 5 6 12 12 13 15 15 12 13 12 10 9 8 6
3 3 3 5 4 4 3 3 2 0 2 2 2 2 2 2 2 4 12 12 12 6 3 4 5 9 10 9 7 5 4 4 2 3 6 4 5 5 4 7 10 10 12 13 17 14 14 13 11 10 10 9 7 5
2 2 2 2 3 3 0 1 1 2 2 2 2 2 3 3 11 10 11 8 2 5 6 10 11 10 9 10 9 7 5 3 3 5 3 4 9 14 14 10 7 8 10 10 11 13 15 13 11 10 9 7 6 5
3 4 2 3 3 3 5 4 5 3 3 3 5 3 3 3 4 1 6 7 7 10 12 11 11 11 9 9 8 6 6 4 1 2 2 1 3 7 6 4 5 5 7 7 8 11 13 11 10 11 9 3 3 3
4 5 3 4 3 3 3 5 3 3 4 2 2 4 3 3 4 2 8 5 6 10 6 5 9 8 7 5 4 4 4 4 3 3 0 5 5 5 8 8 7 5 5 5 5 5 8 10 10 7 6 5 4 5
4 5 5 3 3 4 4 4 4 3 3 3 3 4 3 1 4 3 5 8 6 6 6 6 7 8 9 9 9 8 8 7 7 6 6 3 7 7 6 7 7 6 6 6 5 6 6 6 4 7 6 7 7 6
Wind_Direction
266 255 247 250 249 246 241 243 247 256 271 287 299 305 324 326 338 360 282 265 314 298 290 284 316 326 311 339 287 68 184 195 207 215 265 146 256 147 252 306 251 250 242 231 248 262 245 123 157 228 29 57 128 174
256 253 255 252 242 233 231 237 237 242 260 279 288 296 320 322 328 354 262 260 296 262 325 300 284 277 275 314 312 45 12 82 28 159 200 223 199 186 280 248 180 244 268 330 277 33 79 209 299 352 324 119 123 135
250 256 250 236 229 220 225 229 223 231 252 270 269 293 320 317 318 340 290 291 263 268 259 243 219 232 246 237 239 283 135 33 83 359 9 26 248 282 236 239 267 198 235 255 260 159 194 215 209 247 183 102 119 121
246 248 239 228 220 216 215 213 215 224 242 265 264 296 310 309 306 322 273 283 276 289 277 119 145 271 282 257 220 222 32 124 96 265 236 243 257 217 264 347 262 9 162 231 247 239 233 225 222 184 155 150 129 103
242 240 228 221 217 209 207 207 208 222 235 245 259 293 298 299 304 297 269 260 243 296 331 315 298 73 260 220 188 188 207 181 198 196 216 220 31 240 199 281 251 200 241 233 273 29 259 322 180 183 178 171 159 167
232 231 221 218 211 203 203 199 201 216 226 232 248 282 291 295 316 264 212 210 222 238 273 261 70 159 23 168 175 187 190 165 224 238 182 161 58 258 246 250 333 250 254 272 274 346 264 282 183 183 180 173 153 224
226 222 215 209 201 198 198 196 200 213 217 227 249 274 282 293 305 268 357 92 171 316 256 259 196 127 147 155 158 164 191 171 260 148 222 227 179 237 261 255 135 187 339 283 230 244 193 185 184 174 175 170 157 301
220 213 204 198 195 197 192 194 201 209 211 227 254 269 271 282 288 245 234 238 197 270 255 264 204 195 186 187 170 195 179 194 181 213 173 218 145 229 259 248 273 280 272 244 203 208 343 156 151 136 142 163 252 275
211 201 196 193 193 189 187 186 194 198 206 239 250 248 269 206 215 120 122 139 183 284 288 233 250 152 172 168 136 168 224 208 98 230 213 214 203 220 232 230 246 18 296 241 177 208 171 191 152 146 186 233 283 314
197 195 193 187 184 180 179 181 186 187 197 189 141 205 179 139 157 141 175 188 200 193 223 258 69 204 249 177 186 169 202 226 212 187 125 229 247 223 220 273 276 274 331 241 213 209 201 188 163 123 74 41 11 355
189 188 183 180 176 174 173 176 171 150 148 178 199 166 96 150 191 215 194 221 168 223 200 237 239 229 144 214 173 237 186 176 231 150 228 192 235 144 74 22 308 233 191 140 89 82 77 87 105 106 80 32 2 347
182 179 179 174 173 172 168 163 169 168 179 174 127 136 156 209 209 213 198 170 223 232 162 217 186 220 120 293 239 180 208 193 237 132 220 232 111 115 107 93 87 106 130 110 105 97 86 77 65 57 36 20 0 345
174 174 169 166 165 162 161 160 170 163 137 143 209 179 208 154 191 213 187 196 208 177 178 180 162 179 170 227 216 208 203 209 123 208 222 51 126 135 129 118 107 109 111 107 100 96 93 85 68 47 35 24 2 1
159 157 157 154 155 158 157 166 167 159 164 212 175 165 221 179 231 199 221 124 87 196 161 187 142 189 137 191 182 213 88 189 220 231 219 147 156 151 147 136 127 114 108 103 98 92 83 73 74 61 54 42 29 23
145 142 145 151 153 156 160 164 161 146 209 202 203 207 204 287 245 194 253 221 158 173 185 180 164 211 147 158 215 140 187 226 227 222 109 131 162 162 155 143 123 116 100 95 100 91 86 79 79 71 59 57 50 40
139 136 144 154 151 151 155 155 154 139 193 211 233 207 180 230 182 187 193 188 97 229 217 235 193 189 168 174 187 203 215 216 180 183 133 152 169 168 151 133 147 139 135 132 117 105 99 90 84 90 78 61 56 44
129 129 154 151 149 149 151 140 154 200 226 194 192 198 244 306 63 101 317 44 312 208 193 204 217 129 129 210 206 192 223 72 121 122 147 150 161 146 175 178 156 153 144 139 135 130 121 118 117 110 89 69 59 48
116 141 147 149 148 144 122 103 190 187 180 186 213 158 199 268 220 151 95 40 287 210 217 178 132 190 209 202 202 166 192 113 111 117 113 129 137 158 177 178 161 162 158 158 151 144 147 144 146 127 120 107 87 31
141 144 147 151 157 100 114 23 304 172 217 188 205 181 226 251 282 297 275 277 332 300 262 182 240 228 204 213 253 180 154 163 146 138 127 149 157 178 197 186 183 192 183 171 172 185 165 189 155 153 137 137 53 36
137 142 155 153 162 200 121 110 246 235 208 110 192 196 231 204 125 225 260 266 271 259 223 220 232 212 261 203 255 169 159 157 164 163 158 150 162 176 190 228 216 185 190 180 188 182 175 184 190 188 187 146 34 29
117 142 144 68 51 52 87 159 196 255 142 210 116 213 202 202 230 225 233 193 238 233 230 232 262 264 41 95 146 152 150 194 207 241 198 164 168 178 163 182 190 199 196 210 202 195 209 210 191 193 189 219 239 292
116 130 68 35 24 140 148 138 351 124 227 99 199 206 231 220 215 208 224 222 247 239 241 253 245 256 212 213 205 213 180 191 236 250 233 238 225 222 217 217 213 220 225 231 217 213 203 206 194 196 207 220 239 276
123 133 169 202 178 89 124 207 206 176 209 161 182 209 194 198 160 146 237 232 254 251 252 245 246 252 260 263 246 248 243 249 261 252 243 241 249 250 253 255 251 247 231 242 221 232 207 196 191 202 207 224 251 292
75 78 61 62 105 121 161 174 202 209 210 206 200 206 196 178 146 230 249 243 211 162 228 224 229 233 215 230 248 245 246 245 250 254 252 254 257 253 255 261 263 243 249 240 214 211 200 191 193 200 213 223 245 264
34 19 116 308 213 201 194 171 179 204 209 187 200 210 162 182 226 231 239 176 191 215 167 187 211 240 252 255 255 251 241 243 243 244 243 247 249 254 258 254 247 245 241 230 215 205 199 197 193 205 209 224 244 257
77 166 174 192 150 210 174 183 189 181 204 200 204 159 196 226 234 238 191 164 179 160 79 343 308 265 218 221 253 242 248 240 238 247 252 247 245 251 257 232 227 227 230 232 225 179 162 167 206 215 224 228 239 255
217 171 188 203 317 325 257 209 235 245 217 229 208 227 226 230 237 117 85 47 337 332 317 297 276 264 260 263 322 274 239 237 237 246 260 248 252 255 261 257 253 214 190 182 163 156 152 175 203 218 221 227 242 251
260 264 195 157 184 219 291 232 242 239 253 126 256 251 324 4 292 320 259 292 301 291 276 268 257 230 232 234 250 252 239 235 240 262 241 229 226 227 208 176 173 180 171 178 178 174 182 197 200 207 219 235 243 242
199 204 209 198 206 219 235 238 256 271 22 66 53 3 295 241 242 254 290 290 285 261 246 150 136 168 196 207 222 222 211 201 145 137 136 161 145 155 156 144 143 150 176 188 194 197 211 224 209 208 222 238 253 285
233 203 230 259 229 233 292 161 358 358 28 108 173 238 254 250 264 273 267 264 190 143 123 123 139 160 163 174 159 169 191 209 290 350 71 78 107 126 153 161 157 152 160 160 168 187 202 205 215 229 240 252 259 258
152 175 237 234 248 226 199 183 201 210 226 228 201 223 249 283 291 12 44 53 81 107 110 117 122 125 132 138 147 172 149 150 216 278 284 328 158 166 187 166 149 157 174 186 181 179 185 202 212 228 232 208 152 153
199 203 212 228 180 160 167 185 198 205 196 230 187 200 221 199 101 66 28 23 93 86 47 68 104 82 51 51 47 33 42 47 41 17 306 203 204 182 186 185 170 162 161 157 167 179 199 216 215 200 171 186 185 162
200 191 220 246 170 191 177 207 196 176 172 178 133 149 172 52 85 64 59 44 47 33 39 49 66 77 81 80 84 83 74 61 58 51 45 139 171 175 183 173 172 173 167 172 177 150 190 241 210 224 240 262 272 237